Location: LDNL
(36.4545°S, 141.6685°E)
Time: 23:39:37
(UTC+11:00)

ISS - Pass Details

Date: 13 December 2021
Orbit: 413 x 422 km, 51.6° (Epoch: 22 January)

Event Time Altitude Azimuth Distance (km) Brightness Sun altitude
Rises 04:50:03 0° 222° (SW) 2,383 0.1 -13.6°
Reaches altitude 10° 04:52:20 10° 210° (SSW) 1,514 -0.8 -13.3°
Maximum altitude 04:55:23 30° 146° (SSE) 787 -1.6 -12.8°
Drops below altitude 10° 04:58:25 10° 83° (E) 1,505 -0.3 -12.4°
Sets 05:00:40 0° 71° (ENE) 2,364 0.5 -12.0°
